2023/02/11 00:00:00, 0.0, 2.4
2023/02/11 00:10:00, 0.0, 2.4
2023/02/11 00:20:00, 0.0, 2.5
2023/02/11 00:30:00,---, 2.2
2023/02/11 00:40:00,---, 2.4
2023/02/11 00:50:00,---, 2.1
2023/02/11 01:00:00,19.5, 2.1
2023/02/11 01:10:00,19.5, 1.6
2023/02/11 01:20:00,19.7, 1.3
2023/02/11 01:30:00,18.7, 1.6
2023/02/11 01:40:00,19.0, 1.3
2023/02/11 01:50:00,19.9, 1.5
2023/02/11 02:00:00,19.9, 1.4
2023/02/11 02:10:00,19.7, 1.1
2023/02/11 02:20:00,18.9, 1.5
2023/02/11 02:30:00,18.8, 1.5
2023/02/11 02:40:00,19.5, 1.6
2023/02/11 02:50:00,20.0, 1.4
2023/02/11 03:00:00,20.2, 1.3
2023/02/11 03:10:00,20.2, 1.4
2023/02/11 03:20:00,20.2, 2.1
2023/02/11 03:30:00,20.7, 1.8
2023/02/11 03:40:00,20.7, 1.6
2023/02/11 03:50:00,20.5, 1.4
2023/02/11 04:00:00,20.3, 1.2
2023/02/11 04:10:00,20.3, 1.3
2023/02/11 04:20:00,20.3, 1.3
2023/02/11 04:30:00,20.3, 1.8
2023/02/11 04:40:00,20.4, 1.8
2023/02/11 04:50:00,20.3, 1.5
2023/02/11 05:00:00,20.2, 1.1
2023/02/11 05:10:00,20.3, 1.1
2023/02/11 05:20:00,20.5, 0.8
2023/02/11 05:30:00,20.3, 1.1
2023/02/11 05:40:00,20.2, 1.0
2023/02/11 05:50:00,20.8, 0.7
2023/02/11 06:00:00,20.6, 0.7
2023/02/11 06:10:00,20.5, 0.8
2023/02/11 06:20:00,20.8, 0.8
2023/02/11 06:30:00,20.8, 0.5
2023/02/11 06:40:00,20.9, 0.4
2023/02/11 06:50:00,20.9, 0.2
2023/02/11 07:00:00,21.1, 0.1
2023/02/11 07:10:00,20.8, 0.1
2023/02/11 07:20:00,21.1, 0.2
2023/02/11 07:30:00,21.1, 0.3
2023/02/11 07:40:00,21.3, 0.2
2023/02/11 07:50:00,21.0, 0.4
2023/02/11 08:00:00,21.0, 0.4
2023/02/11 08:10:00,21.0, 0.4
2023/02/11 08:20:00,21.1, 0.6
2023/02/11 08:30:00,21.3, 0.7
2023/02/11 08:40:00,21.1, 0.7
2023/02/11 08:50:00,21.1, 0.8
2023/02/11 09:00:00,21.6, 1.9
2023/02/11 09:10:00,22.3, 1.5
2023/02/11 09:20:00,22.4, 3.0
2023/02/11 09:30:00,22.7, 3.7
2023/02/11 09:40:00,22.9, 3.7
2023/02/11 09:50:00,22.9, 4.7
2023/02/11 10:00:00,23.1, 5.4
2023/02/11 10:10:00,23.2, 5.8
2023/02/11 10:20:00,22.9, 6.3
2023/02/11 10:30:00,23.3, 7.6
2023/02/11 10:40:00,23.2, 8.1
2023/02/11 10:50:00,23.2, 8.0
2023/02/11 11:00:00,23.1, 8.5
2023/02/11 11:10:00,22.1, 8.8
2023/02/11 11:20:00,22.1, 9.2
2023/02/11 11:30:00,21.6, 8.6
2023/02/11 11:40:00,21.4, 9.0
2023/02/11 11:50:00,21.7, 9.9
2023/02/11 12:00:00,22.3,10.0
2023/02/11 12:10:00,22.0, 9.6
2023/02/11 12:20:00,21.4, 8.7
2023/02/11 12:30:00,23.3,10.6
2023/02/11 12:40:00,23.5,11.1
2023/02/11 12:50:00,23.7,11.3
2023/02/11 13:00:00,21.6, 9.9
2023/02/11 13:10:00,21.3,10.1
2023/02/11 13:20:00,22.2,12.0
2023/02/11 13:30:00,21.8,11.3
2023/02/11 13:40:00,21.3,10.8
2023/02/11 13:50:00,20.5, 9.8
2023/02/11 14:00:00,20.0, 9.1
2023/02/11 14:10:00,20.2, 9.5
2023/02/11 14:20:00,20.4, 9.5
2023/02/11 14:30:00,20.1, 9.6
2023/02/11 14:40:00,19.9, 9.3
2023/02/11 14:50:00,19.6, 8.3
2023/02/11 15:00:00,19.7, 7.8
2023/02/11 15:10:00,19.7, 7.5
2023/02/11 15:20:00,19.7, 7.6
2023/02/11 15:30:00,19.6, 7.4
2023/02/11 15:40:00,19.4, 7.0
2023/02/11 15:50:00,19.2, 6.9
2023/02/11 16:00:00,19.2, 6.4
2023/02/11 16:10:00,19.2, 5.9
2023/02/11 16:20:00,19.2, 5.3
2023/02/11 16:30:00,19.1, 5.0
2023/02/11 16:40:00,19.1, 4.9
2023/02/11 16:50:00,19.0, 4.2
2023/02/11 17:00:00,18.7, 4.2
2023/02/11 17:10:00,18.7, 3.2
2023/02/11 17:20:00,18.6, 3.6
2023/02/11 17:30:00,18.5, 3.2
2023/02/11 17:40:00,18.5, 3.1
2023/02/11 17:50:00,18.5, 2.7
2023/02/11 18:00:00,18.3, 2.4
2023/02/11 18:10:00,18.7, 2.4
2023/02/11 18:20:00,18.3, 2.4
2023/02/11 18:30:00,18.3, 2.4
2023/02/11 18:40:00,18.2, 2.2
2023/02/11 18:50:00,18.1, 2.2
2023/02/11 19:00:00,18.0, 2.3
2023/02/11 19:10:00,18.0, 2.5
2023/02/11 19:20:00,17.8, 2.2
2023/02/11 19:30:00,17.9, 2.2
2023/02/11 19:40:00,17.9, 2.4
2023/02/11 19:50:00,17.9, 2.2
2023/02/11 20:00:00,17.9, 2.2
2023/02/11 20:10:00,17.9, 2.5
2023/02/11 20:20:00,17.9, 2.0
2023/02/11 20:30:00,17.8, 1.8
2023/02/11 20:40:00,17.7, 1.9
2023/02/11 20:50:00,17.7, 2.0
2023/02/11 21:00:00,17.7, 2.2
2023/02/11 21:10:00,17.7, 2.2
2023/02/11 21:20:00,17.7, 1.9
2023/02/11 21:30:00,17.8, 1.8
2023/02/11 21:40:00,18.0, 1.8
2023/02/11 21:50:00,17.9, 1.9
2023/02/11 22:00:00,18.0, 2.3
2023/02/11 22:10:00,17.7, 1.7
2023/02/11 22:20:00,17.7, 2.0
2023/02/11 22:30:00,17.8, 1.7
2023/02/11 22:40:00,17.7, 1.6
2023/02/11 22:50:00,17.7, 2.0
2023/02/11 23:00:00,17.7, 2.1
2023/02/11 23:10:00,17.7, 1.3
2023/02/11 23:20:00,17.6, 1.7
2023/02/11 23:30:00,17.7, 1.9
2023/02/11 23:40:00,17.6, 2.2
2023/02/11 23:50:00,17.6, 2.3
